Regional Weather Roundup
Issued by NWS

Home | Current Version | Previous Version | Graphics & Text | Print | Product List | Glossary On
Versions: 1 2 3 4 5 6 7 8 9 10 11 12 13 14 15 16 17 18 19 20 21 22 23 24 25 26 27 28 29 30 31 32 33 34 35 36 37 38 39 40 41 42 43 44 45 46 47 48 49 50
000
ASUS43 KMKX 200611
RWRWI

WISCONSIN REGIONAL WEATHER ROUNDUP
NATIONAL WEATHER SERVICE MILWAUKEE/SULLIVAN WI
100 AM CDT SAT SEP 20 2014

NOTE: "FAIR" INDICATES FEW OR NO CLOUDS BELOW 12,000 FEET WITH NO
SIGNIFICANT WEATHER AND/OR OBSTRUCTIONS TO VISIBILITY.

WIZ001-002-006>008-014>016-023>028-200700-
NORTHWEST WISCONSIN

CITY           SKY/WX    TMP DP  RH WIND       PRES   REMARKS
SUPERIOR ARPT  CLOUDY    60  60  99 CALM      29.61R FOG
6HR MIN TEMP:  54; 6HR MAX TEMP:  63;

ASHLAND        MOCLDY    66  61  84 SW7       29.63S
6HR MIN TEMP:  65; 6HR MAX TEMP:  67;

HAYWARD        MOCLDY    68  64  87 SW10      29.68R
6HR MIN TEMP:  64; 6HR MAX TEMP:  68; 6HR PCP: TRACE;

SIREN          CLEAR     65  64  96 S5        29.65S
6HR MIN TEMP:  62; 6HR MAX TEMP:  65;

RICE LAKE      CLEAR     67  63  89 S9        29.70R
6HR MIN TEMP:  66; 6HR MAX TEMP:  70;

LADYSMITH      CLOUDY    64  62  91 S8        29.72R
6HR MIN TEMP:  64; 6HR MAX TEMP:  69;

EAU CLAIRE     MOCLDY    69  63  81 SW12      29.70S
6HR MIN TEMP:  68; 6HR MAX TEMP:  73; 6HR PCP: TRACE;

MENOMONIE      MOCLDY    70  65  84 S9G18     29.69F
6HR MIN TEMP:  68; 6HR MAX TEMP:  74;

NEW RICHMOND   PTCLDY    69  67  93 SW9       29.68F
6HR MIN TEMP:  66; 6HR MAX TEMP:  71;

OSCEOLA        PTCLDY    69  69  98 S6        29.69S
6HR MIN TEMP:  62; 6HR MAX TEMP:  70;

$$

WIZ003>005-009-010-017-018-200700-
NORTH CENTRAL WISCONSIN

CITY           SKY/WX    TMP DP  RH WIND       PRES   REMARKS
WOODRUFF       CLOUDY    64  59  81 SW7       29.70R
6HR MIN TEMP:  64; 6HR MAX TEMP:  66;

RHINELANDER    MOCLDY    62  56  80 SW14G22   29.72F
6HR MIN TEMP:  62; 6HR MAX TEMP:  65;

EAGLE RIVER    CLOUDY    64  55  74 SW9       29.70S
6HR MIN TEMP:  64; 6HR MAX TEMP:  65;

LAND O LAKES   MOCLDY    64  57  78 SW7       29.70R
6HR MIN TEMP:  64; 6HR MAX TEMP:  65;

PHILLIPS       CLOUDY    63  60  89 SW12      29.70R
6HR MIN TEMP:  63; 6HR MAX TEMP:  65;

TOMAHAWK       CLOUDY    62  57  83 SW3       29.72R
6HR MIN TEMP:  62; 6HR MAX TEMP:  64;

MEDFORD        CLOUDY    62  59  88 S10       29.73F
6HR MIN TEMP:  61; 6HR MAX TEMP:  66; 6HR PCP:  0.13;

MERRILL        CLOUDY    63  58  83 SW8       29.73S
6HR MIN TEMP:  61; 6HR MAX TEMP:  66;

$$

WIZ029-030-035-036-043>047-200700-
CENTRAL WISCONSIN

CITY           SKY/WX    TMP DP  RH WIND       PRES   REMARKS
WAUSAU         CLOUDY    63  56  78 SW15      29.73S
6HR MIN TEMP:  63; 6HR MAX TEMP:  68; 6HR PCP:  0.01;

MOSINEE        CLOUDY    61  57  88 S16       29.76S
MARSHFIELD     MOCLDY    65  57  75 SW10      29.75S
6HR MIN TEMP:  65; 6HR MAX TEMP:  68; 6HR PCP: TRACE;

STEVENS POINT  CLOUDY    64  54  71 SW12G20   29.76S
6HR MIN TEMP:  63; 6HR MAX TEMP:  67;

WAUPACA        CLOUDY    66  54  65 S9        29.78S
6HR MIN TEMP:  65; 6HR MAX TEMP:  70;

WAUTOMA        CLOUDY    66  55  67 S7        29.79F
6HR MIN TEMP:  65; 6HR MAX TEMP:  70;

WISC RAPIDS    LGT RAIN  64  58  80 SW8       29.78R
6HR MIN TEMP:  64; 6HR MAX TEMP:  69; 6HR PCP: TRACE;

CAMP DOUGLAS   MOCLDY    68  60  76 S14G21    29.76F
6HR MIN TEMP:  65; 6HR MAX TEMP:  69;

$$

WIZ011>013-019>022-031-037>040-048>050-200700-
NORTHEAST WISCONSIN

CITY           SKY/WX    TMP DP  RH WIND       PRES   REMARKS
ANTIGO         CLOUDY    60  56  86 SW15      29.74S
6HR MIN TEMP:  59; 6HR MAX TEMP:  64;

STURGEON BAY   CLOUDY    63  52  67 S12       29.76F
6HR MIN TEMP:  61; 6HR MAX TEMP:  63;

GREEN BAY      CLOUDY    65  54  67 S13G26    29.76F
6HR MIN TEMP:  65; 6HR MAX TEMP:  68;

MANITOWOC      CLOUDY    61  51  70 S9        29.81F
6HR MIN TEMP:  60; 6HR MAX TEMP:  64;

APPLETON       CLOUDY    63  52  67 S16G22    29.79F
CLINTONVILLE   CLOUDY    63  52  67 SW9       29.77R
OSHKOSH        PTCLDY    64  54  69 SW15G24   29.80F
6HR MIN TEMP:  64; 6HR MAX TEMP:  68;

$$

WIZ032>034-041-042-053>061-200700-
SOUTHWEST WISCONSIN

CITY           SKY/WX    TMP DP  RH WIND       PRES   REMARKS
LA CROSSE      TSTM      68  63  84 SW17      29.77R
6HR MIN TEMP:  68; 6HR MAX TEMP:  72; 6HR PCP:  0.21;

SPARTA         CLOUDY    68  58  69 SW5       29.77F
6HR MIN TEMP:  66; 6HR MAX TEMP:  70;

VIROQUA        MOCLDY    65  59  80 SW16G22   29.80F
6HR MIN TEMP:  64; 6HR MAX TEMP:  68;

BOSCOBEL       MOCLDY    68  58  70 SW10      29.82F
6HR MIN TEMP:  68; 6HR MAX TEMP:  73;

PRAIRIE DU CHI MOCLDY    67  57  70 S3        29.81F
6HR MIN TEMP:  67; 6HR MAX TEMP:  71;

PLATTEVILLE    FAIR      64  57  78 S9        29.89S
6HR MIN TEMP:  64; 6HR MAX TEMP:  69;

$$

WIZ056-057-062-063-064-067-068-200700-
SOUTH CENTRAL WISCONSIN

CITY           SKY/WX    TMP DP  RH WIND       PRES   REMARKS
BARABOO/DELLS  PTCLDY    66  54  63 SW15G23   29.80F
6HR MIN TEMP:  65; 6HR MAX TEMP:  68;

LONE ROCK      PTCLDY    70  55  59 VRB6      29.83F
6HR MIN TEMP:  69; 6HR MAX TEMP:  74;

WATERTOWN      CLEAR     64  54  68 SW13      29.86S
6HR MIN TEMP:  62; 6HR MAX TEMP:  67;

MADISON        CLEAR     66  54  65 S10       29.85F
6HR MIN TEMP:  66; 6HR MAX TEMP:  71;

MIDDLETON      FAIR      66  54  63 SW10G20   29.85F
6HR MIN TEMP:  66; 6HR MAX TEMP:  70;

MONROE         CLEAR     63  55  77 SW16      29.89R
JANESVILLE     CLEAR     63  52  67 SW8       29.89R
$$

WIZ051-052-058>065-066-070>072-200700-
SOUTHEAST WISCONSIN

CITY           SKY/WX    TMP DP  RH WIND       PRES   REMARKS
MILWAUKEE      PTCLDY    64  48  56 SW14      29.86F
6HR MIN TEMP:  63; 6HR MAX TEMP:  66;

WAUKESHA       CLEAR     63  48  59 SW14G23   29.89S
MILWAUKEE/TIMM CLEAR     63  46  55 SW12      29.87F
RACINE         CLEAR     64  48  56 SW12      29.89F
6HR MIN TEMP:  63; 6HR MAX TEMP:  67;

BURLINGTON     CLEAR     60  49  67 SW10      29.90R
6HR MIN TEMP:  59; 6HR MAX TEMP:  62;

KENOSHA        CLEAR     64  49  57 SW15      29.89F
6HR MIN TEMP:  63; 6HR MAX TEMP:  67;

FOND DU LAC    PTCLDY    64  52  64 S14G23    29.82F
6HR MIN TEMP:  63; 6HR MAX TEMP:  68;

SHEBOYGAN      PTCLDY    61  49  64 S8        29.83F
6HR MIN TEMP:  60; 6HR MAX TEMP:  64;

WEST BEND      PTCLDY    64  50  59 SW16G23   29.84F
JUNEAU         CLEAR     63  53  70 S14       29.86F
6HR MIN TEMP:  62; 6HR MAX TEMP:  67;

$$

LSZ147-162-200700-
LAKE SUPERIOR

STATION/POSITION TIME  TEMP    WIND        PRES    WAVE
                       AIR SEA DIR/SP/G            HT/PER
                 (UTC) (F)     (DEG/KT/KT) (MB)    (FT/S)
W MID LAKE BUOY  0550   55 48  270/  6/  6 1002.0F   1
DEVILS ISLAND    0600   60     230/ 10/ 12 1002.5F
PORT WING        0540   64     280/  7/  9 1003.0F
SAXON HARBOR     0500   69     200/  6/ 12 1003.0F
$$

LMZ867-665-643>646-200700-
LAKE MICHIGAN

STATION/POSITION TIME  TEMP    WIND        PRES    WAVE
                       AIR SEA DIR/SP/G            HT/PER
                 (UTC) (F)     (DEG/KT/KT) (MB)    (FT/S)
N MID LAKE BUOY  0550   61 58  210/ 25/ 31 1007.4F  10/ 8
NORTHPORT PIER   0500   62     160/  9/ 17 1008.1F
SISTER BAY       0427          210/ 19/ 25   N/A
KEWAUNEE LAKESHO 0500                      1009.1F
SHEBOYGAN LAKESH 0600   60 54  180/ 16/ 17 1010.1F
PORT WASHINGTON  0500   65     210/  5/  8 1011.9
ATWATER BUOY     0600   65     210/ 16/ 19 1012.5F
MILWAUKEE LAKESH 0500   65     210/ 13/ 17   N/A
S MID LAKE BUOY  0550   66 64  190/ 21/ 25 1012.2F   4/ 5
KENOSHA   LAKESH 0600   66     200/ 11/ 17 1011.9
$$

TC  - TEMPERATURE IN CELSIUS
VSB - VISIBILITY IN STATUTE MILES
WCI - WIND CHILL INDEX
HX  - HEAT INDEX




USA.gov is the U.S. government's official web portal to all federal, state and local government web resources and services.